Location: Spring Creek
(38.2870°N, 100.2160°W)
Time: 08:53:09
(UTC+00:00)

Cosmos 1570 Rocket - Pass Details

Date: 08 May 2021
Orbit: 764 x 787 km, 74.1° (Epoch: 21 June)

Event Time Altitude Azimuth Distance (km) Brightness Sun altitude
Rises 02:35:50 0° 340° (NNW) 3,244 8.2 -10.8°
Reaches altitude 10° 02:38:14 10° 339° (NNW) 2,311 7.3 -11.2°
Maximum altitude 02:43:28 80° 254° (WSW) 779 4.1 -12.1°
Drops below altitude 10° 02:48:40 10° 167° (SSE) 2,290 6.0 -12.9°
Enters shadow 02:48:54 - 167° (SSE) 2,383 6.1 -13.0°
